Location: Boitzum
(52.1496°N, 9.6943°E)
Time: 04:51:56
(UTC+00:00)

Cosmos 2074 Rocket - Pass Details

Date: 19 April 2026
Orbit: 967 x 984 km, 82.9° (Epoch: 15 May)

Event Time Altitude Azimuth Distance (km) Brightness Sun altitude
Rises 19:09:41 0° 216° (SW) 3,662 7.1 -6.9°
Reaches altitude 10° 19:12:22 10° 224° (SW) 2,722 6.5 -7.3°
Maximum altitude 19:18:08 38° 292° (WNW) 1,457 5.7 -8.0°
Drops below altitude 10° 19:23:58 10° 359° (N) 2,748 6.8 -8.8°
Sets 19:26:43 0° 8° (N) 3,702 7.4 -9.2°
